Darstellungsparameter: Aktuell verwendete Einstellungen:
Skalierung der Graphiken ... ?
xyx+y,   Skalierungsfaktor:      Skalierung: Modus: x, Faktor: 1
Darstellungszeitraum ... ?
Vom - - bis: - -   Zeitraum: 14.05.2019 - 20.05.2019
Min/Max/Avg-Anzeige ... ?
Zeige MMA aktuell
Zeige MMA Monat
Zeige MMA alles
Zeige --A aktuell
Zeige --A Monat
Zeige --A alles
Keine MMA-Anzeige
MMA:
Average (ber die Originaldaten)
MMA-Basis: 14.05.2019 - 20.05.2019
Quicknavigation für Darstellung... ?
Tage:      1T, 2T, 3T, 5T -1T -2T -3T -5T +1T +2T +3T +5T
Wochen: 1W, 2W, 3W -1W -2W -3W +1W +2W +3W
Monate: 1M, 3M, 6M -1M -3M -6M +1M +3M +6M
Jahre:    1J, 3J, 5J, 10J -1J -3J -5J -10J +1J +3J +5J +10J
Nutze für die Darstellung ... ?
Originaldaten oder ...
Mittelwerte Minima Maxima auf...
Stundenbasis Tagesbasis Wochenbasis
Monatsbasis Jahresbasis      Datenbasis: Mittelwerte auf Stundenbasis
Darstellen als:
Statistik (Auto) Statistik J:M      Darstellung:
Zur Graphik,    zurück zur Übersicht aller Sensoren.
 
Tabellarische Datenbersicht: ?
 
Sensor: Nr:Datum:Temp:Abs-Feuchte:Windchill:Wind:
Aussen-T/F 1 14-05-2019 00:00:00 6.7 C 5.69 g/m*3 6.7 C 0 km/h
2 14-05-2019 01:00:00 5.76667 C 5.54 g/m*3 5.77 C 0 km/h
3 14-05-2019 02:00:00 4.74167 C 5.43 g/m*3 4.74 C 0 km/h
4 14-05-2019 03:00:00 3.83333 C 5.32 g/m*3 3.83 C 0 km/h
5 14-05-2019 04:00:00 3.18333 C 5.24 g/m*3 3.18 C 0 km/h
6 14-05-2019 05:00:00 2.66667 C 5.17 g/m*3 2.67 C 0 km/h
7 14-05-2019 06:00:00 2.41667 C 5.19 g/m*3 2.42 C 0 km/h
8 14-05-2019 07:00:00 2.825 C 5.44 g/m*3 2.83 C 0 km/h
9 14-05-2019 08:00:00 4.2 C 5.97 g/m*3 4.2 C 0 km/h
10 14-05-2019 09:00:00 6.50833 C 6.44 g/m*3 6.51 C 1.46667 km/h
11 14-05-2019 10:00:00 9.575 C 6.34 g/m*3 8.9 C 6.30833 km/h
12 14-05-2019 11:00:00 12.65 C 5.64 g/m*3 12.65 C 15.7 km/h
13 14-05-2019 12:00:00 13.45833 C 5.35 g/m*3 13.46 C 13.83333 km/h
14 14-05-2019 13:00:00 14.21667 C 5.35 g/m*3 14.22 C 15.7 km/h
15 14-05-2019 14:00:00 14.79167 C 5.44 g/m*3 14.79 C 15.83333 km/h
16 14-05-2019 15:00:00 16.00833 C 5.43 g/m*3 16.01 C 13.96667 km/h
17 14-05-2019 16:00:00 16.59167 C 5.24 g/m*3 16.59 C 15.69167 km/h
18 14-05-2019 17:00:00 16.8 C 5.21 g/m*3 16.8 C 14.75833 km/h
19 14-05-2019 18:00:00 16.475 C 5.22 g/m*3 16.48 C 9.53333 km/h
20 14-05-2019 19:00:00 16.075 C 5.22 g/m*3 16.08 C 7.50833 km/h
21 14-05-2019 20:00:00 13.73333 C 5.8 g/m*3 13.73 C 4.15833 km/h
22 14-05-2019 21:00:00 10.35 C 5.82 g/m*3 10.35 C 0.53333 km/h
23 14-05-2019 22:00:00 8.73333 C 5.89 g/m*3 8.73 C 0 km/h
24 14-05-2019 23:00:00 7.69167 C 5.83 g/m*3 7.69 C 0 km/h
25 15-05-2019 00:00:00 6.88333 C 5.65 g/m*3 6.88 C 0 km/h
Sensor: Nr:Datum:Temp:Abs-Feuchte:Windchill:Wind:
Aussen-T/F 26 15-05-2019 01:00:00 5.89167 C 5.57 g/m*3 5.89 C 0 km/h
27 15-05-2019 02:00:00 4.74167 C 5.44 g/m*3 4.74 C 0 km/h
28 15-05-2019 03:00:00 3.98333 C 5.37 g/m*3 3.98 C 0 km/h
29 15-05-2019 04:00:00 3.15 C 5.25 g/m*3 3.15 C 0 km/h
30 15-05-2019 05:00:00 2.60833 C 5.15 g/m*3 2.61 C 0 km/h
31 15-05-2019 06:00:00 2.325 C 5.17 g/m*3 2.33 C 0 km/h
32 15-05-2019 07:00:00 2.75833 C 5.41 g/m*3 2.76 C 0 km/h
33 15-05-2019 08:00:00 3.775 C 5.81 g/m*3 3.78 C 0 km/h
34 15-05-2019 09:00:00 5.99167 C 6.19 g/m*3 5.99 C 2.81667 km/h
35 15-05-2019 10:00:00 10.15833 C 5.19 g/m*3 9.15 C 8.19167 km/h
36 15-05-2019 11:00:00 12.05 C 4.88 g/m*3 12.05 C 10.225 km/h
37 15-05-2019 12:00:00 12.95 C 4.63 g/m*3 12.95 C 8.85833 km/h
38 15-05-2019 13:00:00 14.08333 C 4.35 g/m*3 14.08 C 13.56667 km/h
39 15-05-2019 14:00:00 14.95 C 4.75 g/m*3 14.95 C 15.96667 km/h
40 15-05-2019 15:00:00 15.975 C 4.64 g/m*3 15.98 C 17.83333 km/h
41 15-05-2019 16:00:00 17.19167 C 5.03 g/m*3 17.19 C 12.1 km/h
42 15-05-2019 17:00:00 17.58333 C 4.96 g/m*3 17.58 C 14.1 km/h
43 15-05-2019 18:00:00 17.38333 C 5.02 g/m*3 17.38 C 13.55833 km/h
44 15-05-2019 19:00:00 16.55833 C 4.97 g/m*3 16.56 C 11.55 km/h
45 15-05-2019 20:00:00 15.10833 C 5.45 g/m*3 15.11 C 4.69167 km/h
46 15-05-2019 21:00:00 11.45833 C 5.85 g/m*3 11.46 C 1.74167 km/h
47 15-05-2019 22:00:00 9.525 C 5.5 g/m*3 9.53 C 0.53333 km/h
48 15-05-2019 23:00:00 8.09167 C 5.32 g/m*3 8.09 C 0.93333 km/h
49 16-05-2019 00:00:00 7.39167 C 5.29 g/m*3 7.39 C 1.6 km/h
50 16-05-2019 01:00:00 6.64167 C 5.56 g/m*3 6.64 C 0 km/h
Sensor: Nr:Datum:Temp:Abs-Feuchte:Windchill:Wind:
Aussen-T/F 51 16-05-2019 02:00:00 5.725 C 5.61 g/m*3 5.73 C 0 km/h
52 16-05-2019 03:00:00 5.58333 C 5.8 g/m*3 5.58 C 0 km/h
53 16-05-2019 04:00:00 5.71667 C 5.95 g/m*3 5.72 C 0 km/h
54 16-05-2019 05:00:00 5.83333 C 6.04 g/m*3 5.83 C 0 km/h
55 16-05-2019 06:00:00 5.95 C 6.18 g/m*3 5.95 C 0.13333 km/h
56 16-05-2019 07:00:00 6.64167 C 6.45 g/m*3 6.64 C 0 km/h
57 16-05-2019 08:00:00 7.98333 C 6.84 g/m*3 7.98 C 0.13333 km/h
58 16-05-2019 09:00:00 9.95 C 6.81 g/m*3 9.95 C 4.15 km/h
59 16-05-2019 10:00:00 11.65833 C 6.56 g/m*3 11.66 C 8.45833 km/h
60 16-05-2019 11:00:00 12.20833 C 6.32 g/m*3 12.21 C 8.33333 km/h
61 16-05-2019 12:00:00 13.13333 C 6.73 g/m*3 13.13 C 8.875 km/h
62 16-05-2019 13:00:00 14.68333 C 7.13 g/m*3 14.68 C 10.76667 km/h
63 16-05-2019 14:00:00 15.4 C 7.34 g/m*3 15.4 C 10.48333 km/h
64 16-05-2019 15:00:00 17.38333 C 7.71 g/m*3 17.38 C 10.08333 km/h
65 16-05-2019 16:00:00 18.23333 C 7.73 g/m*3 18.23 C 8.45 km/h
66 16-05-2019 17:00:00 16.90833 C 7.77 g/m*3 16.91 C 9.69167 km/h
67 16-05-2019 18:00:00 15.44167 C 8.11 g/m*3 15.44 C 11.95 km/h
68 16-05-2019 19:00:00 14.075 C 8.25 g/m*3 14.08 C 4.41667 km/h
69 16-05-2019 20:00:00 12.56667 C 8.08 g/m*3 12.57 C 6.70833 km/h
70 16-05-2019 21:00:00 11.175 C 7.69 g/m*3 11.18 C 8.21667 km/h
71 16-05-2019 22:00:00 10.23333 C 7.8 g/m*3 10.23 C 4.29167 km/h
72 16-05-2019 23:00:00 9.60833 C 7.91 g/m*3 9.61 C 0.66667 km/h
73 17-05-2019 00:00:00 9.08333 C 8.06 g/m*3 9.08 C 0 km/h
74 17-05-2019 01:00:00 8.79167 C 8.05 g/m*3 8.79 C 0 km/h
75 17-05-2019 02:00:00 8.7 C 8.1 g/m*3 8.7 C 0 km/h
Sensor: Nr:Datum:Temp:Abs-Feuchte:Windchill:Wind:
Aussen-T/F 76 17-05-2019 03:00:00 8.63333 C 8.11 g/m*3 8.63 C 0.53333 km/h
77 17-05-2019 04:00:00 8.475 C 8.09 g/m*3 8.48 C 0.13333 km/h
78 17-05-2019 05:00:00 8.36667 C 8.04 g/m*3 8.37 C 0 km/h
79 17-05-2019 06:00:00 8.45 C 8.13 g/m*3 8.45 C 0 km/h
80 17-05-2019 07:00:00 8.71667 C 8.31 g/m*3 8.72 C 0.4 km/h
81 17-05-2019 08:00:00 8.96667 C 8.45 g/m*3 8.97 C 1.73333 km/h
82 17-05-2019 09:00:00 9.29167 C 8.62 g/m*3 9.29 C 1.86667 km/h
83 17-05-2019 10:00:00 9.625 C 8.81 g/m*3 9.63 C 4.825 km/h
84 17-05-2019 11:00:00 10.2 C 9.05 g/m*3 10.2 C 3.86667 km/h
85 17-05-2019 12:00:00 11.175 C 9.49 g/m*3 11.18 C 6.425 km/h
86 17-05-2019 13:00:00 12.825 C 10 g/m*3 12.83 C 8.625 km/h
87 17-05-2019 14:00:00 14.44167 C 10.43 g/m*3 14.44 C 6.58333 km/h
88 17-05-2019 15:00:00 15.54167 C 10.58 g/m*3 15.54 C 7.26667 km/h
89 17-05-2019 16:00:00 16.35 C 10.47 g/m*3 16.35 C 7.65833 km/h
90 17-05-2019 17:00:00 17.35 C 10.47 g/m*3 17.35 C 6.70833 km/h
91 17-05-2019 18:00:00 16.8 C 11.2 g/m*3 16.8 C 2 km/h
92 17-05-2019 19:00:00 16.625 C 11.34 g/m*3 16.63 C 0.26667 km/h
93 17-05-2019 20:00:00 13.975 C 10.28 g/m*3 13.98 C 0.26667 km/h
94 17-05-2019 21:00:00 12.00833 C 9.56 g/m*3 12.01 C 0.26667 km/h
95 17-05-2019 22:00:00 11.96667 C 9.78 g/m*3 11.97 C 0 km/h
96 17-05-2019 23:00:00 12.05833 C 9.99 g/m*3 12.06 C 0.4 km/h
97 18-05-2019 00:00:00 11.6 C 9.77 g/m*3 11.6 C 0 km/h
98 18-05-2019 01:00:00 10.44167 C 9.12 g/m*3 10.44 C 0.4 km/h
99 18-05-2019 02:00:00 10.58333 C 9.34 g/m*3 10.58 C 0 km/h
100 18-05-2019 03:00:00 10.43333 C 9.26 g/m*3 10.43 C 0 km/h
Sensor: Nr:Datum:Temp:Abs-Feuchte:Windchill:Wind:
Aussen-T/F 101 18-05-2019 04:00:00 9.925 C 8.98 g/m*3 9.93 C 0 km/h
102 18-05-2019 05:00:00 9.31667 C 8.64 g/m*3 9.32 C 0 km/h
103 18-05-2019 06:00:00 9.35833 C 8.7 g/m*3 9.36 C 0 km/h
104 18-05-2019 07:00:00 10.23333 C 9.25 g/m*3 10.23 C 0.13333 km/h
105 18-05-2019 08:00:00 11.2 C 9.82 g/m*3 11.2 C 1.6 km/h
106 18-05-2019 09:00:00 12.275 C 10.26 g/m*3 12.28 C 0.66667 km/h
107 18-05-2019 10:00:00 14.16667 C 11.13 g/m*3 14.17 C 1.2 km/h
108 18-05-2019 11:00:00 16.9 C 11.11 g/m*3 16.9 C 4.675 km/h
109 18-05-2019 12:00:00 18.14167 C 11.07 g/m*3 18.14 C 3.86667 km/h
110 18-05-2019 13:00:00 19.01667 C 11.27 g/m*3 19.02 C 4.15833 km/h
111 18-05-2019 14:00:00 20.34167 C 11.02 g/m*3 20.34 C 5.50833 km/h
112 18-05-2019 15:00:00 21.05833 C 10.74 g/m*3 21.06 C 6.30833 km/h
113 18-05-2019 16:00:00 22.41667 C 11.99 g/m*3 22.42 C 8.05833 km/h
114 18-05-2019 17:00:00 21.04167 C 12.96 g/m*3 21.04 C 0.26667 km/h
115 18-05-2019 18:00:00 18.54167 C 12.15 g/m*3 18.54 C 2 km/h
116 18-05-2019 19:00:00 15.85 C 11.74 g/m*3 15.85 C 1.33333 km/h
117 18-05-2019 20:00:00 14.79167 C 11.45 g/m*3 14.79 C 0 km/h
118 18-05-2019 21:00:00 13.71667 C 10.91 g/m*3 13.72 C 0.26667 km/h
119 18-05-2019 22:00:00 12.75 C 10.42 g/m*3 12.75 C 0.26667 km/h
120 18-05-2019 23:00:00 12.53333 C 10.43 g/m*3 12.53 C 0.66667 km/h
121 19-05-2019 00:00:00 12.79167 C 10.64 g/m*3 12.79 C 0 km/h
122 19-05-2019 01:00:00 12.73333 C 10.6 g/m*3 12.73 C 0.4 km/h
123 19-05-2019 02:00:00 12.26667 C 10.29 g/m*3 12.27 C 0 km/h
124 19-05-2019 03:00:00 11.71667 C 10 g/m*3 11.72 C 0 km/h
125 19-05-2019 04:00:00 11.625 C 9.99 g/m*3 11.63 C 0 km/h
Sensor: Nr:Datum:Temp:Abs-Feuchte:Windchill:Wind:
Aussen-T/F 126 19-05-2019 05:00:00 11.38333 C 9.84 g/m*3 11.38 C 0 km/h
127 19-05-2019 06:00:00 11.475 C 9.99 g/m*3 11.48 C 0.13333 km/h
128 19-05-2019 07:00:00 12.13333 C 10.42 g/m*3 12.13 C 0.93333 km/h
129 19-05-2019 08:00:00 12.825 C 10.88 g/m*3 12.83 C 2 km/h
130 19-05-2019 09:00:00 13.73333 C 11.5 g/m*3 13.73 C 2.66667 km/h
131 19-05-2019 10:00:00 15.11667 C 12.25 g/m*3 15.12 C 0.66667 km/h
132 19-05-2019 11:00:00 16.26667 C 12.5 g/m*3 16.27 C 2.66667 km/h
133 19-05-2019 12:00:00 17.99167 C 12.93 g/m*3 17.99 C 7.525 km/h
134 19-05-2019 13:00:00 18.78333 C 12.47 g/m*3 18.78 C 8.88333 km/h
135 19-05-2019 14:00:00 20.225 C 11.78 g/m*3 20.23 C 8.89167 km/h
136 19-05-2019 15:00:00 22.54167 C 12.28 g/m*3 22.54 C 9.55833 km/h
137 19-05-2019 16:00:00 23.4 C 12.28 g/m*3 23.4 C 11.69167 km/h
138 19-05-2019 17:00:00 19.25833 C 10.48 g/m*3 19.26 C 9.525 km/h
139 19-05-2019 18:00:00 19.96667 C 11.24 g/m*3 19.97 C 7.39167 km/h
140 19-05-2019 19:00:00 20.475 C 11.22 g/m*3 20.48 C 3.73333 km/h
141 19-05-2019 20:00:00 18.96667 C 11.15 g/m*3 18.97 C 0.4 km/h
142 19-05-2019 21:00:00 15.7 C 10.82 g/m*3 15.7 C 0.13333 km/h
143 19-05-2019 22:00:00 14.53333 C 10.74 g/m*3 14.53 C 1.06667 km/h
144 19-05-2019 23:00:00 14.65833 C 10.64 g/m*3 14.66 C 2.40833 km/h
145 20-05-2019 00:00:00 14.48333 C 10.64 g/m*3 14.48 C 4.14167 km/h
146 20-05-2019 01:00:00 13.40833 C 10.39 g/m*3 13.41 C 1.06667 km/h
147 20-05-2019 02:00:00 12.46667 C 10.05 g/m*3 12.47 C 0.66667 km/h
148 20-05-2019 03:00:00 12.23333 C 10.07 g/m*3 12.23 C 1.33333 km/h
149 20-05-2019 04:00:00 12.7 C 10.46 g/m*3 12.7 C 2.4 km/h
150 20-05-2019 05:00:00 13.13333 C 10.63 g/m*3 13.13 C 3.73333 km/h
Sensor: Nr:Datum:Temp:Abs-Feuchte:Windchill:Wind:
Aussen-T/F 151 20-05-2019 06:00:00 13.15 C 10.53 g/m*3 13.15 C 7.25 km/h
152 20-05-2019 07:00:00 13.16667 C 10.54 g/m*3 13.17 C 1.33333 km/h
153 20-05-2019 08:00:00 13.475 C 10.72 g/m*3 13.48 C 0.53333 km/h
154 20-05-2019 09:00:00 13.95 C 10.81 g/m*3 13.95 C 4.55833 km/h
155 20-05-2019 10:00:00 14.25833 C 10.92 g/m*3 14.26 C 5.775 km/h
156 20-05-2019 11:00:00 14.125 C 11.17 g/m*3 14.13 C 3.61667 km/h
157 20-05-2019 12:00:00 14.08333 C 11.16 g/m*3 14.08 C 7.93333 km/h
158 20-05-2019 13:00:00 13.85833 C 11 g/m*3 13.86 C 9.125 km/h
159 20-05-2019 14:00:00 14.29167 C 11.23 g/m*3 14.29 C 9.01667 km/h
160 20-05-2019 15:00:00 14.6 C 11.17 g/m*3 14.6 C 7.1 km/h
161 20-05-2019 16:00:00 14.84167 C 11.14 g/m*3 14.84 C 9.55 km/h
162 20-05-2019 17:00:00 14.93333 C 11.11 g/m*3 14.93 C 8.08333 km/h
163 20-05-2019 18:00:00 14.86667 C 10.95 g/m*3 14.87 C 11.95833 km/h
164 20-05-2019 19:00:00 14.65 C 10.88 g/m*3 14.65 C 7.125 km/h
165 20-05-2019 20:00:00 14.5 C 10.85 g/m*3 14.5 C 9.15833 km/h
166 20-05-2019 21:00:00 14.19167 C 10.74 g/m*3 14.19 C 9.81667 km/h
167 20-05-2019 22:00:00 14.1 C 10.68 g/m*3 14.1 C 7.93333 km/h
168 20-05-2019 23:00:00 14.21667 C 10.58 g/m*3 14.22 C 6.575 km/h

Maximal/Minimal-Werte vom 14.05.2019 - 20.05.2019

Sensor Min Max Avg
Temp
(Aussen-T/F)
2.3 °C
15-05-2019  06:05:00
24.4 °C
19-05-2019  16:40:00
12.29 °C
Abs-Feuchte
(Aussen-T/F)
4.35 g/m*3
15-05-2019  13:00:00
12.96 g/m*3
18-05-2019  17:00:00
8.43 g/m*3
Windchill
(Aussen-T/F)
2.33 C
15-05-2019  06:00:00
23.4 C
19-05-2019  16:00:00
12.21 C

Die Daten stammen von einer Davis Vantage Pro 2 Wetter-Station und werden unter Linux mit der Software wview2wettercgi und aufbereitet. Alle Angaben erfolgen ohne Gewähr für ihre Vollständigkeit oder Richtigkeit.
Kontakt: Rainer Krienke krienke@uni-koblenz.de . Meine Webseiten an der Uni Koblenz oder privat.
Version: $Revision: 0.78 $